Location: Unspecified
(0.0000°N, 0.0000°E)
Time: 01:35:05
(UTC+00:00)

TIMED - Pass Details

Date: 01 August 2021
Orbit: 602 x 604 km, 74.1° (Epoch: 28 September)

Event Time Altitude Azimuth Distance (km) Brightness Sun altitude
Rises 03:20:57 0° 26° (NNE) 2,836 8.5 -38.9°
Reaches altitude 10° 03:25:01 10° 63° (ENE) 1,939 7.8 -38.0°
Maximum altitude 03:26:03 11° 78° (ENE) 1,891 7.7 -37.8°
Drops below altitude 10° 03:27:06 10° 92° (E) 1,942 7.7 -37.5°
Sets 03:31:09 0° 129° (SE) 2,850 8.3 -36.6°
